Location: Marschkamp
(53.5782°N, 8.7279°E)
Time: 11:09:16
(UTC+00:00)

Daily predictions for brighter satellites

Satellite Brightness Start Highest point End
(mag) Time Altitude Azimuth Time Altitude Azimuth Time Altitude Azimuth
NOSS 2-3 (E) 4.0 17:58:27 10° SW 18:02:52 78° NW 18:08:23 10° NE
Cosmos 1844 Rocket 4.3 18:03:22 10° ESE 18:05:17 12° E 18:07:13 10° ENE
CZ-2C R/B 3.2 18:00:15 10° SSE 18:05:32 84° ENE 18:11:10 10° NNW
SJ 16-02 1.3 18:01:21 10° SSW 18:05:43 83° ESE 18:10:09 10° NNE
Cosmos 990 Rocket 4.1 18:01:07 10° S 18:06:07 55° ESE 18:11:09 10° NNE
Cosmos 2227 4.4 18:01:11 10° S 18:06:41 49° ESE 18:12:12 10° NE
Cosmos 1943 3.4 18:02:54 10° NW 18:08:34 77° WSW 18:14:12 10° SSE
Abrixas rocket 3.5 18:06:35 10° SW 18:08:47 20° SSE 18:10:59 10° ESE
Okean 2 Rocket 4.2 18:07:34 10° SE 18:11:10 24° E 18:14:46 10° NNE
SJ-11-01 4.3 18:07:07 10° SSE 18:11:51 81° ENE 18:16:34 10° NNW
Lacrosse 5 rocket 1.5 18:09:31 10° WSW 18:13:47 85° SSE 18:18:17 10° ENE
Okean-O 3.9 18:09:52 10° S 18:14:09 47° W 18:18:27 10° NNW
Cosmos 1437 2.7 18:13:37 10° NNW 18:16:39 80° WSW 18:19:38 10° S
Ariane Rocket 3.4 18:12:30 10° SE 18:17:19 46° ENE 18:22:10 10° N
NOSS 3-2 (A) 4.1 18:10:47 10° NW 18:17:55 71° NE 18:26:07 10° ESE
Meteor 1-21 4.3 18:13:43 10° NNW 18:19:22 88° W 18:24:58 10° S
USA 116 3.3 18:17:56 10° NNE 18:21:15 68° ESE 18:24:53 10° S
Cosmos 1833 Rocket 4.4 18:17:06 10° NNW 18:21:16 20° NNE 18:25:26 10° ENE
GP-B 4.1 18:18:34 10° N 18:22:55 54° W 18:27:15 10° SSW
Cosmos 2227 Rocket 3.8 18:17:51 10° WSW 18:23:05 37° NW 18:28:20 10° NNE
Cosmos 1300 Rocket 4.4 18:20:34 10° SSE 18:24:23 30° E 18:28:15 10° NNE
SPOT 3 Rocket 4.4 18:23:13 10° ESE 18:27:41 31° ENE 18:32:09 10° N
MetOp-A 4.5 18:24:03 10° SE 18:29:09 47° ENE 18:34:17 10° N
NOSS 2-3 (D) 4.4 18:24:45 10° WSW 18:29:12 61° NNW 18:34:44 10° NE
YAOGAN 1 3.9 18:25:37 10° S 18:29:45 44° W 18:33:56 10° NNW
HJ-1C 3.9 18:28:49 10° S 18:32:04 61° WSW 18:35:22 10° NNW
Cosmos 1867 3.8 18:26:48 10° NW 18:32:16 74° SW 18:37:43 10° SSE
Okean 2 4.4 18:28:47 10° NNW 18:32:51 50° W 18:36:52 10° S
Cosmos 1898 Rocket 3.4 18:28:01 10° SSW 18:33:11 79° ESE 18:38:25 10° NNE
Timation 1 Rocket 4.5 18:27:52 10° SW 18:33:51 82° NW 18:39:53 10° NNE
CSL-04 Rocket 4.2 18:29:42 10° S 18:35:04 63° WSW 18:40:34 10° NNW
Cosmos 1536 Rocket 4.0 18:32:23 10° N 18:36:39 43° ENE 18:40:54 10° SE
USA 234 4.3 18:35:46 10° ENE 18:40:47 23° SE 18:45:48 10° S
Cosmos 1626 3.9 18:39:55 10° NNE 18:42:15 16° ENE 18:43:18 14° E
Meteor 2-5 Rocket 4.5 18:38:57 10° N 18:44:01 34° ENE 18:48:05 15° ESE
CREW DRAGON DEMO-1 DEB 2.9 18:43:13 10° W 18:46:12 60° S 18:47:59 22° ESE
Cosmos 858 Rocket 4.4 18:41:12 10° SSW 18:46:25 76° ESE 18:51:38 10° NNE
Cosmos 1782 Rocket 3.9 18:46:09 10° SSW 18:50:33 71° WNW 18:55:02 10° N
Cosmos 1025 Rocket 3.0 18:46:21 10° N 18:50:44 73° ENE 18:55:06 10° SSE
USA 229 DEB 4.5 18:44:43 10° WSW 18:51:13 52° NNW 18:58:10 10° NE
USA 229 4.5 18:44:48 10° WSW 18:51:18 52° NNW 18:58:15 10° NE
Cosmos 1975 3.7 18:47:38 10° SSW 18:51:38 54° WNW 18:55:40 10° N
NOSS 3-2 (C) 4.0 18:44:52 10° NW 18:52:02 73° NE 18:58:45 16° ESE
CZ-4 R/B 4.0 18:48:41 10° SSW 18:52:07 24° W 18:55:34 10° NW
Cosmos 2151 Rocket 4.0 18:48:02 10° SSE 18:52:12 40° E 18:56:25 10° NNE
Cosmos 372 Rocket 4.2 18:47:24 10° S 18:52:23 46° ESE 18:57:23 10° NE
USA 186 1.7 18:49:28 10° SSE 18:52:35 87° WSW 18:55:52 10° NNW
Nadezhda 4 Rocket 3.9 18:51:14 10° N 18:57:23 69° ENE 19:03:28 10° SSE
Cosmos 1072 Rocket 4.5 18:51:52 10° S 18:58:04 74° E 19:04:26 10° NNE
Cosmos 2082 Rocket 3.8 18:56:51 10° NNW 19:01:10 22° NNE 19:04:43 13° ENE
Cosmos 1805 4.4 19:00:43 23° E 19:01:13 23° E 19:04:21 10° NE
MOS 1 Rocket 3.2 18:57:39 10° NNE 19:02:15 82° WNW 19:06:37 10° SSW
Cosmos 1937 Rocket 3.6 18:57:38 10° SSW 19:02:54 83° WNW 19:08:09 10° NNE
OBJECT-B 1.0 19:01:23 24° SE 19:03:03 50° ENE 19:06:14 10° N
NOSS 3-1 (A) 4.3 18:57:34 10° WSW 19:03:19 52° NNW 19:10:09 10° NE
Cosmos 2034 Rocket 4.1 18:58:08 10° S 19:04:20 58° E 19:10:33 10° NNE
Cosmos 1125 Rocket 4.3 19:01:26 10° SSE 19:05:56 29° E 19:10:28 10° NE
Exosat Rocket 4.4 19:02:37 10° SSE 19:07:10 27° ESE 19:11:22 10° NE
FREGAT/IRIS 2.3 19:05:32 20° S 19:07:10 77° WSW 19:09:47 10° NNW
Cosmos 1674 2.8 19:03:44 10° N 19:07:32 54° ENE 19:09:42 23° SE
COSMOS 2406 4.0 19:03:57 10° NNW 19:09:11 36° NE 19:12:17 21° E
Meteor 1-24 Rocket 4.2 19:06:11 10° N 19:11:19 40° ENE 19:14:11 23° ESE
In-Cosmos 22 4.3 19:09:14 10° NNW 19:14:31 72° W 19:19:49 10° S
NOSS 8 (H) 4.1 19:11:44 10° SW 19:14:47 83° NW 19:17:32 13° NE
SL-14 R/B 4.2 19:12:05 10° N 19:15:31 29° ENE 19:16:10 27° E
NOSS 2-2 (E) 3.1 19:15:04 10° SW 19:18:36 66° SE 19:22:48 10° NE
ERS-1 Rocket 4.4 19:17:24 19° ENE 19:18:53 21° NE 19:22:37 10° N
Cosmos 1707 4.1 19:16:23 10° NNW 19:20:00 40° W 19:23:36 10° SSW
Resurs 01 Rocket 1.8 19:19:16 28° SE 19:21:25 53° ENE 19:25:46 10° N
H-2A R/B 3.8 19:17:46 10° SSW 19:22:12 32° W 19:26:45 10° NNW
CZ-2C R/B 2.6 19:17:08 10° NNE 19:22:40 75° ESE 19:28:15 10° S
ARGOS 4.4 19:18:14 10° SSW 19:23:18 42° W 19:28:24 10° NNW
ATLAS 2AS CENTAUR R/B 4.0 19:24:48 22° E 19:24:48 22° E 19:29:48 10° ENE
Lacrosse 4 Rocket 3.2 19:21:20 10° NNW 19:24:20 19° NNE 19:25:54 16° ENE
KORONAS-FOTON 3.7 19:21:15 10° N 19:25:13 79° E 19:27:14 28° SSE
SJ-6B 3.4 19:21:47 10° S 19:25:25 54° W 19:29:08 10° NNW
NOSS 2-2 (D) 3.1 19:23:33 10° SSW 19:27:03 63° SE 19:31:10 10° NE
Cosmos 1048 Rocket 4.3 19:24:50 10° NNW 19:30:06 68° WSW 19:34:10 17° S
CENTAUR R/B 3.2 19:25:02 10° NW 19:32:52 86° SW 19:38:33 25° SE
ATLAS CENTAUR R/B 3.7 19:30:45 10° WNW 19:33:29 18° NNW 19:36:10 10° NNE
Cosmos 1766 3.7 19:33:40 39° E 19:33:40 39° E 19:37:13 10° NNE
SPOT 1/Viking Rocket 4.2 19:33:46 30° E 19:35:20 37° ENE 19:40:05 10° N
Cosmos 1844 4.0 19:30:50 10° S 19:36:09 43° ESE 19:41:28 10° NE
SWAS 4.5 19:33:04 10° NW 19:37:24 78° WSW 19:39:04 36° SSE
IGS 5A 4.0 19:37:09 37° E 19:37:42 39° ENE 19:41:35 10° N
Cosmos 1634 Rocket 4.2 19:34:23 23° SSE 19:37:58 48° E 19:43:54 10° NNE
ARIANE 5 R/B 2.9 19:37:42 40° ESE 19:38:42 48° ENE 19:42:53 10° N
ATLAS 3B R/B 3.0 19:32:27 10° NW 19:39:07 57° NNE 19:42:49 28° E
Cosmos 1269 Rocket 4.1 19:34:06 10° NNW 19:39:24 65° ENE 19:41:30 36° SE
USA 238 DEB 4.2 19:33:38 10° NW 19:40:41 62° SW 19:45:38 22° SSE
USA 238 4.2 19:33:44 10° NW 19:40:47 62° SW 19:45:43 22° SSE
Cosmos 2263 Rocket 3.1 19:35:38 10° WSW 19:41:02 49° NW 19:46:30 10° NNE
Cosmos 2285 Rocket 4.1 19:36:30 10° S 19:42:31 50° ESE 19:48:38 10° NNE
ISS -1.7 19:40:05 10° SW 19:41:14 18° SSW 19:41:14 18° SSW
MetOp-B 4.2 19:41:11 34° SE 19:43:25 62° ENE 19:48:43 10° N
Abrixas rocket 3.8 19:41:04 10° WSW 19:42:31 22° SW 19:42:31 22° SW
SJ 16-02 4.2 19:41:46 10° W 19:44:55 19° NW 19:48:05 10° N
Cosmos 1844 Rocket 2.6 19:42:34 10° SSW 19:48:02 61° ESE 19:53:34 10° NE
Okean 2 Rocket 4.1 19:44:37 10° SSW 19:48:59 49° WNW 19:53:21 10° N
Spot 2 Rocket 3.7 19:48:07 40° ESE 19:49:26 51° ENE 19:54:19 10° N
Cosmos 1627 Rocket 4.5 19:43:13 10° N 19:49:40 82° E 19:53:33 26° SSE
Okean 1 Rocket 3.0 19:51:21 35° S 19:53:13 74° E 19:57:43 10° NNE
Lacrosse 5 rocket 2.1 19:48:56 10° W 19:53:15 55° N 19:55:13 30° ENE
Cosmos 1340 Rocket 4.3 19:55:19 23° NE 19:55:19 23° NE 19:57:14 10° NNE
Cosmos 1092 Rocket 4.0 19:49:38 10° NNW 19:55:48 77° W 20:00:15 20° S
Meteor 1-15 Rocket 4.2 19:54:47 10° SSW 20:00:26 85° WNW 20:06:13 10° NNE
Resurs 1-3 4.4 19:57:58 22° SSW 20:00:32 49° W 20:04:50 10° NNW
Cosmos 2026 Rocket 4.0 19:56:57 10° NNW 20:03:21 87° W 20:06:56 28° S
CZ-2C R/B 3.5 19:59:32 10° NNE 20:04:01 81° ESE 20:05:30 42° S
Cosmos 1833 Rocket 2.9 20:00:49 10° NNW 20:06:26 58° NE 20:07:47 46° E
Cosmos 2298 Rocket 4.2 20:01:26 10° SSW 20:06:46 74° WNW 20:12:08 10° NNE
SPOT 3 Rocket 4.1 20:03:38 22° S 20:06:52 53° W 20:11:56 10° NNW
NOSS 2-2 (C) 3.6 20:08:06 10° WSW 20:11:41 63° NW 20:15:45 11° NE
Cosmos 2251 Rocket 4.1 20:06:57 10° NNW 20:12:05 42° NE 20:12:49 40° ENE
Cosmos 1626 2.5 20:14:14 10° NNW 20:17:51 60° W 20:17:51 60° W
Terra 2.6 20:19:13 36° ENE 20:19:13 36° ENE 20:23:20 10° N
Cosmos 1892 Rocket 3.4 20:15:40 10° NNW 20:20:02 89° WSW 20:20:06 87° S
Cosmos 2279 Rocket 4.0 20:20:51 50° SE 20:22:13 63° E 20:28:25 10° NNE
Cosmos 2142 Rocket 4.4 20:21:19 44° SSE 20:23:24 72° E 20:29:38 10° NNE
USA 234 3.2 20:19:22 16° ENE 20:24:44 62° SE 20:31:13 10° SW
Meteor 2-5 Rocket 4.4 20:22:15 10° NNW 20:27:39 50° W 20:30:35 26° SSW
CARTOSAT-1 3.9 20:29:31 54° NNE 20:29:31 54° NNE 20:33:11 10° N
OBJECT-B 3.6 20:34:35 12° WSW 20:35:42 14° W 20:37:31 10° NW
SPOT 5 3.0 20:40:10 70° ENE 20:40:11 70° ENE 20:45:29 10° NNW
Meteor 1-22 Rocket 4.4 20:43:04 36° SSW 20:45:34 75° WNW 20:51:40 10° NNE
Cosmos 2082 Rocket 2.2 20:40:43 10° NNW 20:46:20 67° NE 20:46:33 66° ENE
Okean 1-7 Rocket 3.9 20:42:21 10° NNW 20:46:41 67° WNW 20:46:41 67° WNW
Cosmos 1125 Rocket 4.1 20:42:29 10° SW 20:47:43 57° WNW 20:53:00 10° NNE
COSMOS 2406 3.4 20:48:15 10° NW 20:53:49 59° WSW 20:54:20 57° SW
ERS-1 Rocket 3.0 20:57:24 78° WNW 20:57:24 78° WNW 21:02:13 10° NNW
Resurs 01 Rocket 3.6 20:56:51 20° WSW 20:58:12 23° W 21:01:48 10° NW
Cosmos 2098 Rocket 4.1 20:55:17 10° NNW 21:02:38 79° W 21:03:50 62° SSW
Lacrosse 4 Rocket 2.7 20:59:35 10° NW 21:02:11 38° NNW 21:02:11 38° NNW
Cosmos 2266 Rocket 3.7 20:59:14 10° N 21:05:20 89° WSW 21:05:35 83° S
Meteor 2-21 4.5 21:01:18 10° N 21:07:24 67° ENE 21:07:24 67° ENE
Exosat Rocket 4.4 21:03:16 10° SW 21:08:22 47° NW 21:13:16 10° NNE
Cosmos 1809 Rocket 4.3 21:02:14 10° N 21:08:28 76° ENE 21:08:28 76° ENE
Meteor 1-21 Rocket 4.2 21:03:29 10° NNW 21:09:09 85° WNW 21:09:09 85° WNW
Cosmos 1655 Rocket 4.1 21:05:26 10° NNW 21:11:39 67° W 21:12:30 60° SW
ATLAS CENTAUR R/B 3.7 21:11:17 10° NNW 21:13:38 16° N 21:13:40 16° N
ATLAS 2AS CENTAUR R/B 2.9 21:11:58 53° SSW 21:13:58 72° SE 21:21:46 10° NE
SPOT 1/Viking Rocket 4.4 21:14:25 42° WSW 21:14:43 42° W 21:19:39 10° NNW
ARIANE 5 R/B 4.4 21:15:16 25° W 21:15:23 25° W 21:19:00 10° NW
SME Rocket 4.4 21:10:02 10° NNE 21:14:53 44° NE 21:14:53 44° NE
Cosmos 2278 Rocket 3.3 21:22:33 33° NE 21:22:33 33° NE 21:25:37 10° NE
Cosmos 1455 Rocket 4.3 21:23:00 39° NNW 21:23:00 39° NNW 21:26:07 10° N
CENTAUR R/B 4.3 21:16:11 10° WNW 21:23:05 32° WSW 21:25:44 27° SW
Meteor 2-10 4.5 21:29:52 62° N 21:29:52 62° N 21:34:24 10° NNE
ATLAS 3B R/B 3.0 21:23:17 10° NW 21:29:55 55° SW 21:30:03 55° SW
Cosmos 1844 Rocket 4.1 21:27:11 10° WSW 21:32:16 35° NW 21:37:25 10° NNE
Lacrosse 5 rocket 3.1 21:28:23 10° WNW 21:30:50 32° WNW 21:30:50 32° WNW
Meteor 2-14 Rocket 4.5 21:32:22 10° NNW 21:38:04 76° NW 21:38:04 76° NW
Cosmos 909 Rocket 4.4 21:41:03 10° NW 21:46:53 53° W 21:46:53 53° W
Cosmos 1833 Rocket 4.0 21:45:08 10° NW 21:49:28 32° W 21:49:28 32° W
Cosmos 407 Rocket 4.4 21:46:34 10° NNW 21:50:07 45° NNW 21:50:07 45° NNW
Terra 3.4 21:58:06 31° WNW 21:58:06 31° WNW 22:01:11 10° NNW
USA 234 3.3 22:01:23 10° ENE 22:07:56 76° NNW 22:14:29 10° W
MOS 1-B Rocket 4.4 22:13:32 10° NNE 22:20:13 77° WNW 22:20:17 77° WNW
Cosmos 2082 Rocket 3.9 22:25:20 10° NW 22:28:23 24° WNW 22:28:23 24° WNW
Cosmos 1943 Rocket 4.1 22:35:46 20° NE 22:35:46 20° NE 22:37:36 10° NE
COSMOS 2455 4.0 22:35:52 35° NE 22:35:52 35° NE 22:39:15 10° NE
USA 229 DEB 4.4 22:29:03 10° NW 22:35:57 53° NNE 22:37:22 47° ENE
USA 229 4.4 22:29:08 10° NW 22:36:02 53° NNE 22:37:28 46° ENE
NOSS 3-4 (A) 4.1 22:41:30 52° NW 22:41:52 53° NNW 22:48:24 10° NE
NOSS 3-4 (C) 4.1 22:41:40 53° NW 22:41:59 53° NNW 22:48:29 10° NE
NOSS 3-1 (A) 4.5 22:41:16 10° NW 22:47:59 52° NNE 22:50:20 40° ENE
Cosmos 2369 Rocket 4.0 22:59:18 23° NE 22:59:18 23° NE 23:01:31 10° NE
CZ-4C R/B 3.6 23:02:01 33° NE 23:02:01 33° NE 23:05:32 10° NE
Cosmos 2278 Rocket 3.6 23:04:22 33° NW 23:04:31 33° NW 23:09:39 10° NNE
ATLAS 2AS CENTAUR R/B 3.6 22:59:08 16° W 23:05:26 54° NNW 23:12:59 10° NE
NOSS 3-1 (C) 4.0 23:22:25 10° NW 23:28:49 74° NNW 23:28:49 74° NNW
Cosmos 2227 Rocket 4.0 23:36:45 10° NNW 23:41:31 27° NE 23:43:30 22° ENE
USA 234 3.4 23:44:16 10° E 23:54:27 28° WNW 23:57:16 10° WNW
